QPF
0.00 0.00 0.00 0.00 0.00 0.00 0.00 0.00 0.00 0.00 0.00 0.00 0.00 0.00 0.00 0.00 0.00 0.00 0.00 0.00 0.01 0.02 0.03 0.04 0.03 0.03 0.03 0.03 0.03 0.02 0.01 0.02 0.02 0.02 0.02 0.02 0.01 0.02 0.02 0.01 0.02 0.03 0.04 0.04
0.00 0.00 0.00 0.00 0.00 0.00 0.00 0.00 0.00 0.00 0.00 0.00 0.00 0.00 0.00 0.01 0.01 0.00 0.01 0.01 0.02 0.04 0.03 0.02 0.02 0.03 0.03 0.03 0.03 0.03 0.03 0.03 0.04 0.04 0.03 0.03 0.03 0.03 0.02 0.02 0.02 0.02 0.03 0.02
0.00 0.00 0.00 0.00 0.00 0.00 0.00 0.00 0.00 0.00 0.00 0.00 0.00 0.00 0.01 0.01 0.01 0.01 0.01 0.01 0.02 0.03 0.04 0.02 0.02 0.02 0.03 0.03 0.03 0.04 0.04 0.05 0.06 0.07 0.07 0.06 0.04 0.02 0.01 0.00 0.01 0.02 0.02 0.02
0.00 0.00 0.00 0.00 0.00 0.00 0.00 0.00 0.00 0.00 0.00 0.00 0.00 0.00 0.00 0.00 0.00 0.01 0.01 0.01 0.02 0.02 0.02 0.02 0.02 0.02 0.02 0.02 0.02 0.03 0.05 0.06 0.08 0.10 0.09 0.07 0.05 0.02 0.01 0.02 0.01 0.01 0.01 0.02
0.00 0.00 0.00 0.00 0.00 0.00 0.00 0.00 0.00 0.00 0.00 0.00 0.00 0.00 0.00 0.00 0.00 0.00 0.01 0.01 0.02 0.01 0.01 0.01 0.02 0.01 0.01 0.01 0.01 0.01 0.02 0.03 0.04 0.06 0.07 0.06 0.04 0.03 0.02 0.03 0.01 0.01 0.01 0.02
0.00 0.00 0.00 0.00 0.00 0.00 0.00 0.00 0.00 0.00 0.00 0.00 0.00 0.00 0.00 0.01 0.01 0.01 0.01 0.01 0.01 0.01 0.01 0.01 0.01 0.01 0.01 0.01 0.01 0.01 0.01 0.01 0.02 0.05 0.05 0.04 0.04 0.04 0.03 0.03 0.02 0.02 0.01 0.01
0.00 0.00 0.00 0.00 0.00 0.00 0.00 0.00 0.00 0.00 0.00 0.00 0.00 0.00 0.00 0.00 0.00 0.01 0.01 0.01 0.01 0.01 0.01 0.01 0.01 0.01 0.01 0.01 0.01 0.01 0.01 0.01 0.03 0.05 0.06 0.05 0.04 0.05 0.05 0.03 0.03 0.02 0.01 0.02
0.00 0.00 0.00 0.00 0.00 0.00 0.00 0.00 0.00 0.00 0.00 0.00 0.00 0.00 0.00 0.00 0.00 0.00 0.00 0.00 0.00 0.01 0.01 0.01 0.01 0.01 0.01 0.01 0.01 0.01 0.01 0.02 0.05 0.06 0.06 0.06 0.05 0.05 0.05 0.04 0.03 0.03 0.03 0.04
0.00 0.00 0.00 0.00 0.00 0.00 0.00 0.00 0.00 0.00 0.00 0.00 0.00 0.00 0.00 0.00 0.00 0.00 0.00 0.01 0.00 0.00 0.00 0.01 0.02 0.02 0.02 0.02 0.02 0.02 0.02 0.03 0.04 0.06 0.06 0.06 0.05 0.04 0.04 0.04 0.04 0.04 0.05 0.05
0.00 0.00 0.00 0.00 0.00 0.00 0.00 0.00 0.00 0.00 0.00 0.00 0.00 0.00 0.00 0.00 0.00 0.00 0.01 0.01 0.00 0.00 0.01 0.02 0.02 0.03 0.03 0.04 0.03 0.03 0.03 0.04 0.05 0.06 0.06 0.04 0.03 0.03 0.04 0.05 0.03 0.03 0.04 0.04
0.00 0.00 0.00 0.00 0.00 0.00 0.00 0.00 0.00 0.00 0.00 0.00 0.00 0.00 0.00 0.00 0.01 0.01 0.01 0.01 0.01 0.02 0.02 0.02 0.02 0.03 0.04 0.05 0.04 0.04 0.05 0.05 0.06 0.06 0.04 0.04 0.03 0.04 0.04 0.03 0.03 0.03 0.03 0.02
0.00 0.00 0.00 0.00 0.00 0.00 0.00 0.00 0.00 0.00 0.00 0.00 0.00 0.00 0.00 0.00 0.01 0.01 0.01 0.01 0.01 0.02 0.02 0.03 0.03 0.03 0.05 0.06 0.05 0.05 0.06 0.05 0.04 0.03 0.03 0.04 0.03 0.03 0.03 0.02 0.02 0.02 0.02 0.02
0.00 0.00 0.00 0.00 0.00 0.00 0.00 0.00 0.00 0.00 0.00 0.00 0.00 0.00 0.00 0.00 0.00 0.01 0.01 0.01 0.01 0.02 0.02 0.02 0.02 0.03 0.06 0.08 0.09 0.08 0.07 0.06 0.04 0.03 0.03 0.03 0.03 0.03 0.03 0.02 0.02 0.02 0.02 0.03
0.00 0.00 0.00 0.00 0.00 0.00 0.00 0.00 0.00 0.00 0.00 0.00 0.00 0.00 0.00 0.00 0.00 0.01 0.01 0.01 0.01 0.01 0.02 0.03 0.03 0.05 0.08 0.11 0.13 0.11 0.09 0.08 0.06 0.04 0.03 0.03 0.03 0.03 0.03 0.03 0.03 0.04 0.05 0.04
0.00 0.00 0.00 0.00 0.00 0.01 0.01 0.00 0.00 0.00 0.00 0.00 0.00 0.00 0.00 0.00 0.00 0.00 0.01 0.01 0.02 0.02 0.02 0.03 0.06 0.09 0.09 0.12 0.10 0.08 0.07 0.06 0.06 0.05 0.04 0.03 0.02 0.02 0.02 0.02 0.03 0.05 0.07 0.07
0.00 0.00 0.00 0.00 0.00 0.00 0.01 0.01 0.01 0.01 0.00 0.00 0.00 0.00 0.01 0.01 0.01 0.01 0.01 0.02 0.03 0.03 0.03 0.04 0.05 0.07 0.08 0.09 0.07 0.07 0.05 0.04 0.03 0.03 0.03 0.02 0.01 0.01 0.01 0.01 0.02 0.04 0.05 0.05
0.00 0.00 0.00 0.00 0.00 0.00 0.00 0.01 0.01 0.01 0.01 0.00 0.00 0.01 0.01 0.01 0.01 0.01 0.01 0.02 0.03 0.03 0.03 0.03 0.05 0.07 0.07 0.08 0.06 0.05 0.04 0.03 0.02 0.02 0.02 0.01 0.01 0.01 0.02 0.02 0.02 0.04 0.05 0.06
0.00 0.00 0.00 0.00 0.00 0.00 0.00 0.01 0.01 0.01 0.01 0.01 0.01 0.02 0.02 0.01 0.01 0.01 0.02 0.03 0.05 0.05 0.04 0.05 0.07 0.08 0.08 0.08 0.07 0.05 0.03 0.02 0.02 0.01 0.01 0.01 0.01 0.02 0.02 0.02 0.02 0.03 0.03 0.05
0.00 0.00 0.00 0.00 0.01 0.02 0.02 0.01 0.01 0.01 0.01 0.01 0.02 0.03 0.02 0.02 0.03 0.04 0.04 0.04 0.05 0.05 0.05 0.06 0.07 0.09 0.10 0.09 0.08 0.05 0.03 0.02 0.01 0.01 0.01 0.01 0.01 0.01 0.01 0.02 0.03 0.02 0.04 0.07
0.01 0.01 0.00 0.00 0.01 0.01 0.01 0.00 0.00 0.01 0.02 0.02 0.02 0.02 0.02 0.02 0.03 0.04 0.04 0.04 0.05 0.04 0.04 0.05 0.06 0.08 0.10 0.09 0.07 0.04 0.03 0.02 0.02 0.01 0.01 0.01 0.02 0.02 0.02 0.02 0.02 0.02 0.03 0.03
0.01 0.01 0.01 0.01 0.01 0.01 0.00 0.00 0.01 0.03 0.04 0.04 0.03 0.02 0.02 0.02 0.02 0.03 0.03 0.05 0.05 0.04 0.04 0.05 0.06 0.05 0.06 0.08 0.07 0.05 0.03 0.02 0.02 0.02 0.02 0.02 0.02 0.03 0.04 0.02 0.01 0.01 0.01 0.01
0.03 0.02 0.01 0.01 0.02 0.02 0.00 0.01 0.03 0.04 0.04 0.05 0.04 0.03 0.03 0.02 0.02 0.02 0.03 0.06 0.06 0.05 0.04 0.04 0.05 0.05 0.04 0.06 0.07 0.05 0.03 0.02 0.03 0.03 0.02 0.02 0.02 0.03 0.04 0.03 0.01 0.01 0.01 0.01
0.03 0.03 0.03 0.02 0.02 0.01 0.00 0.01 0.03 0.03 0.03 0.04 0.03 0.02 0.02 0.02 0.02 0.02 0.03 0.05 0.06 0.06 0.07 0.06 0.06 0.05 0.04 0.04 0.03 0.03 0.04 0.04 0.04 0.04 0.03 0.02 0.02 0.03 0.03 0.04 0.02 0.01 0.01 0.01
0.04 0.03 0.03 0.03 0.02 0.01 0.01 0.01 0.02 0.03 0.02 0.02 0.01 0.01 0.01 0.02 0.02 0.03 0.03 0.03 0.05 0.06 0.08 0.09 0.07 0.06 0.05 0.04 0.03 0.03 0.03 0.04 0.04 0.03 0.03 0.03 0.03 0.03 0.03 0.03 0.04 0.02 0.02 0.02
0.04 0.05 0.03 0.02 0.02 0.01 0.01 0.02 0.01 0.02 0.02 0.02 0.02 0.02 0.02 0.03 0.03 0.03 0.04 0.05 0.05 0.06 0.07 0.10 0.10 0.08 0.05 0.04 0.04 0.04 0.04 0.04 0.04 0.03 0.03 0.03 0.03 0.03 0.03 0.03 0.05 0.04 0.02 0.02
0.04 0.05 0.04 0.03 0.02 0.02 0.02 0.02 0.02 0.02 0.02 0.02 0.02 0.02 0.03 0.03 0.03 0.04 0.04 0.05 0.05 0.05 0.06 0.07 0.09 0.08 0.05 0.03 0.03 0.04 0.04 0.05 0.05 0.03 0.03 0.03 0.03 0.03 0.03 0.04 0.05 0.05 0.04 0.02
MSLP
1011.99 1012.83 1013.43 1013.78 1013.92 1013.90 1013.82 1013.78 1013.85 1014.08 1014.46 1014.96 1015.52 1016.06 1016.50 1016.77 1016.86 1016.75 1016.46 1016.03 1015.48 1014.87 1014.22 1013.56 1012.92 1012.32 1011.78 1011.32 1010.98 1010.77 1010.71 1010.81 1011.04 1011.38 1011.78 1012.20 1012.58 1012.90 1013.14 1013.31 1013.43 1013.54 1013.69 1013.92
1012.54 1013.27 1013.77 1014.03 1014.10 1014.07 1014.03 1014.07 1014.26 1014.63 1015.16 1015.80 1016.47 1017.10 1017.62 1017.95 1018.08 1018.01 1017.76 1017.36 1016.84 1016.25 1015.61 1014.93 1014.23 1013.54 1012.87 1012.27 1011.75 1011.37 1011.15 1011.09 1011.19 1011.42 1011.74 1012.08 1012.41 1012.68 1012.87 1012.98 1013.06 1013.13 1013.24 1013.43
1013.02 1013.62 1014.00 1014.18 1014.21 1014.19 1014.21 1014.34 1014.65 1015.15 1015.79 1016.52 1017.27 1017.94 1018.48 1018.82 1018.97 1018.91 1018.69 1018.34 1017.88 1017.35 1016.75 1016.10 1015.40 1014.68 1013.94 1013.22 1012.58 1012.04 1011.65 1011.44 1011.39 1011.48 1011.67 1011.92 1012.16 1012.36 1012.49 1012.57 1012.60 1012.64 1012.73 1012.89
1013.46 1013.92 1014.19 1014.30 1014.32 1014.33 1014.42 1014.67 1015.10 1015.70 1016.43 1017.22 1017.99 1018.66 1019.16 1019.47 1019.58 1019.52 1019.31 1018.99 1018.59 1018.12 1017.60 1017.01 1016.36 1015.64 1014.88 1014.10 1013.36 1012.70 1012.16 1011.79 1011.58 1011.52 1011.57 1011.69 1011.83 1011.95 1012.02 1012.05 1012.06 1012.08 1012.15 1012.31
1013.90 1014.24 1014.42 1014.48 1014.51 1014.58 1014.77 1015.13 1015.67 1016.37 1017.16 1017.97 1018.71 1019.33 1019.76 1019.99 1020.03 1019.92 1019.69 1019.38 1019.02 1018.62 1018.17 1017.66 1017.06 1016.39 1015.63 1014.84 1014.03 1013.27 1012.62 1012.10 1011.74 1011.52 1011.42 1011.41 1011.44 1011.47 1011.48 1011.47 1011.45 1011.46 1011.53 1011.70
1014.39 1014.62 1014.73 1014.78 1014.84 1014.99 1015.28 1015.75 1016.39 1017.16 1017.98 1018.78 1019.48 1020.01 1020.34 1020.46 1020.40 1020.21 1019.93 1019.61 1019.26 1018.90 1018.51 1018.06 1017.53 1016.90 1016.18 1015.38 1014.54 1013.72 1012.97 1012.33 1011.83 1011.47 1011.23 1011.09 1011.00 1010.94 1010.89 1010.83 1010.80 1010.80 1010.88 1011.06
1014.94 1015.08 1015.16 1015.21 1015.33 1015.56 1015.95 1016.52 1017.24 1018.05 1018.87 1019.63 1020.26 1020.69 1020.90 1020.91 1020.74 1020.46 1020.11 1019.74 1019.38 1019.03 1018.67 1018.26 1017.77 1017.19 1016.49 1015.71 1014.86 1014.00 1013.19 1012.46 1011.85 1011.36 1011.00 1010.73 1010.54 1010.40 1010.28 1010.19 1010.14 1010.14 1010.22 1010.42
1015.52 1015.62 1015.69 1015.77 1015.94 1016.25 1016.72 1017.35 1018.11 1018.93 1019.73 1020.43 1020.97 1021.30 1021.41 1021.31 1021.05 1020.68 1020.27 1019.85 1019.45 1019.08 1018.71 1018.30 1017.84 1017.27 1016.60 1015.83 1014.98 1014.11 1013.25 1012.46 1011.77 1011.19 1010.73 1010.37 1010.09 1009.87 1009.70 1009.57 1009.50 1009.49 1009.58 1009.77
1016.10 1016.19 1016.27 1016.39 1016.62 1016.98 1017.49 1018.15 1018.90 1019.69 1020.44 1021.07 1021.53 1021.78 1021.81 1021.63 1021.31 1020.88 1020.41 1019.94 1019.49 1019.07 1018.67 1018.24 1017.76 1017.19 1016.52 1015.75 1014.91 1014.04 1013.17 1012.34 1011.60 1010.96 1010.43 1009.99 1009.65 1009.37 1009.15 1008.99 1008.89 1008.88 1008.95 1009.14
1016.60 1016.72 1016.84 1017.01 1017.28 1017.66 1018.18 1018.81 1019.52 1020.24 1020.92 1021.47 1021.86 1022.05 1022.03 1021.83 1021.47 1021.02 1020.53 1020.02 1019.53 1019.05 1018.59 1018.10 1017.57 1016.97 1016.29 1015.52 1014.68 1013.81 1012.94 1012.11 1011.35 1010.68 1010.10 1009.62 1009.22 1008.90 1008.65 1008.46 1008.34 1008.30 1008.36 1008.53
1016.99 1017.17 1017.35 1017.56 1017.86 1018.24 1018.72 1019.29 1019.91 1020.54 1021.12 1021.59 1021.92 1022.08 1022.06 1021.87 1021.54 1021.11 1020.62 1020.09 1019.56 1019.03 1018.49 1017.93 1017.33 1016.67 1015.95 1015.16 1014.32 1013.46 1012.60 1011.78 1011.01 1010.33 1009.73 1009.22 1008.79 1008.45 1008.17 1007.95 1007.81 1007.75 1007.79 1007.93
1017.25 1017.51 1017.75 1018.02 1018.32 1018.68 1019.10 1019.58 1020.09 1020.60 1021.08 1021.49 1021.78 1021.94 1021.95 1021.81 1021.54 1021.16 1020.69 1020.17 1019.61 1019.02 1018.40 1017.76 1017.07 1016.34 1015.56 1014.74 1013.89 1013.03 1012.18 1011.36 1010.60 1009.91 1009.31 1008.78 1008.33 1007.96 1007.67 1007.44 1007.29 1007.21 1007.23 1007.34
1017.41 1017.75 1018.07 1018.38 1018.69 1019.01 1019.36 1019.73 1020.12 1020.52 1020.91 1021.25 1021.52 1021.70 1021.76 1021.70 1021.51 1021.20 1020.78 1020.28 1019.69 1019.05 1018.35 1017.61 1016.83 1016.02 1015.17 1014.31 1013.43 1012.56 1011.71 1010.89 1010.13 1009.43 1008.81 1008.27 1007.80 1007.42 1007.11 1006.88 1006.72 1006.64 1006.65 1006.75
1017.51 1017.94 1018.33 1018.68 1018.99 1019.27 1019.54 1019.82 1020.10 1020.40 1020.70 1020.99 1021.26 1021.46 1021.59 1021.61 1021.51 1021.28 1020.91 1020.43 1019.82 1019.13 1018.36 1017.52 1016.65 1015.75 1014.84 1013.92 1013.00 1012.10 1011.23 1010.40 1009.62 1008.89 1008.24 1007.66 1007.17 1006.76 1006.45 1006.22 1006.07 1006.01 1006.03 1006.14
1017.65 1018.15 1018.59 1018.96 1019.27 1019.51 1019.72 1019.91 1020.10 1020.32 1020.56 1020.82 1021.08 1021.33 1021.52 1021.61 1021.59 1021.42 1021.10 1020.62 1020.00 1019.26 1018.42 1017.50 1016.54 1015.56 1014.57 1013.60 1012.63 1011.69 1010.78 1009.90 1009.07 1008.29 1007.58 1006.95 1006.42 1005.98 1005.66 1005.43 1005.30 1005.27 1005.33 1005.46
1017.87 1018.42 1018.89 1019.26 1019.55 1019.76 1019.92 1020.04 1020.17 1020.33 1020.53 1020.77 1021.04 1021.32 1021.56 1021.71 1021.75 1021.62 1021.33 1020.85 1020.21 1019.42 1018.52 1017.53 1016.50 1015.46 1014.41 1013.37 1012.35 1011.35 1010.38 1009.43 1008.52 1007.66 1006.86 1006.15 1005.55 1005.07 1004.72 1004.50 1004.40 1004.41 1004.52 1004.71
1018.21 1018.75 1019.22 1019.59 1019.85 1020.02 1020.14 1020.22 1020.30 1020.42 1020.60 1020.84 1021.12 1021.42 1021.69 1021.88 1021.94 1021.85 1021.56 1021.08 1020.41 1019.59 1018.64 1017.61 1016.52 1015.42 1014.32 1013.23 1012.16 1011.09 1010.04 1009.00 1007.98 1007.00 1006.10 1005.28 1004.59 1004.04 1003.66 1003.43 1003.35 1003.41 1003.59 1003.86
1018.63 1019.14 1019.57 1019.90 1020.12 1020.26 1020.33 1020.38 1020.44 1020.55 1020.72 1020.96 1021.25 1021.56 1021.84 1022.05 1022.12 1022.02 1021.73 1021.24 1020.56 1019.71 1018.74 1017.68 1016.58 1015.45 1014.31 1013.18 1012.05 1010.91 1009.77 1008.62 1007.47 1006.37 1005.33 1004.38 1003.58 1002.94 1002.50 1002.26 1002.19 1002.30 1002.54 1002.89
1019.09 1019.53 1019.88 1020.14 1020.31 1020.41 1020.45 1020.48 1020.53 1020.64 1020.81 1021.05 1021.35 1021.66 1021.94 1022.14 1022.21 1022.10 1021.80 1021.30 1020.61 1019.77 1018.80 1017.74 1016.64 1015.50 1014.35 1013.19 1012.01 1010.80 1009.57 1008.30 1007.03 1005.78 1004.60 1003.52 1002.59 1001.85 1001.34 1001.05 1000.99 1001.12 1001.41 1001.84
1019.48 1019.82 1020.09 1020.27 1020.38 1020.43 1020.45 1020.46 1020.52 1020.63 1020.81 1021.06 1021.35 1021.66 1021.93 1022.11 1022.16 1022.05 1021.74 1021.24 1020.57 1019.74 1018.80 1017.77 1016.69 1015.57 1014.42 1013.24 1012.03 1010.76 1009.44 1008.07 1006.68 1005.30 1003.97 1002.75 1001.70 1000.86 1000.26 999.92 999.82 999.95 1000.28 1000.75
1019.73 1019.97 1020.14 1020.24 1020.29 1020.30 1020.29 1020.31 1020.37 1020.49 1020.69 1020.94 1021.24 1021.54 1021.79 1021.96 1022.00 1021.87 1021.57 1021.09 1020.44 1019.66 1018.76 1017.77 1016.73 1015.65 1014.52 1013.34 1012.10 1010.79 1009.40 1007.95 1006.45 1004.96 1003.51 1002.18 1001.01 1000.06 999.37 998.96 998.82 998.92 999.24 999.73
1019.77 1019.92 1020.01 1020.04 1020.04 1020.02 1020.01 1020.04 1020.12 1020.27 1020.48 1020.74 1021.04 1021.33 1021.57 1021.72 1021.75 1021.63 1021.34 1020.89 1020.28 1019.55 1018.71 1017.79 1016.80 1015.75 1014.65 1013.48 1012.23 1010.89 1009.46 1007.95 1006.38 1004.81 1003.28 1001.86 1000.60 999.56 998.79 998.30 998.10 998.15 998.43 998.90
1019.60 1019.68 1019.70 1019.70 1019.67 1019.65 1019.66 1019.71 1019.82 1020.00 1020.23 1020.51 1020.81 1021.09 1021.33 1021.47 1021.50 1021.38 1021.12 1020.70 1020.15 1019.48 1018.70 1017.84 1016.91 1015.91 1014.84 1013.69 1012.44 1011.10 1009.65 1008.11 1006.52 1004.91 1003.35 1001.88 1000.57 999.47 998.63 998.07 997.78 997.76 997.98 998.38
1019.24 1019.27 1019.27 1019.25 1019.23 1019.24 1019.29 1019.39 1019.55 1019.76 1020.03 1020.33 1020.63 1020.91 1021.14 1021.28 1021.30 1021.20 1020.97 1020.60 1020.10 1019.49 1018.78 1017.98 1017.10 1016.15 1015.11 1013.98 1012.75 1011.42 1009.99 1008.47 1006.90 1005.30 1003.75 1002.29 1000.97 999.85 998.97 998.34 997.98 997.87 997.99 998.31
1018.73 1018.75 1018.76 1018.76 1018.79 1018.85 1018.97 1019.13 1019.35 1019.62 1019.92 1020.24 1020.55 1020.83 1021.05 1021.19 1021.22 1021.14 1020.94 1020.61 1020.17 1019.61 1018.96 1018.22 1017.39 1016.47 1015.47 1014.38 1013.18 1011.89 1010.50 1009.04 1007.53 1006.01 1004.52 1003.11 1001.83 1000.73 999.84 999.18 998.75 998.55 998.56 998.75
1018.15 1018.19 1018.23 1018.29 1018.39 1018.53 1018.73 1018.97 1019.26 1019.59 1019.93 1020.27 1020.59 1020.87 1021.09 1021.23 1021.27 1021.21 1021.03 1020.75 1020.35 1019.85 1019.25 1018.55 1017.77 1016.89 1015.93 1014.88 1013.73 1012.50 1011.19 1009.82 1008.42 1007.01 1005.64 1004.34 1003.15 1002.10 1001.24 1000.56 1000.09 999.81 999.70 999.77
Thickness
5745 5733 5727 5734 5739 5742 5741 5738 5737 5748 5763 5760 5757 5760 5770 5779 5779 5778 5778 5779 5780 5782 5787 5786 5785 5785 5782 5778 5774 5770 5766 5763 5759 5754 5749 5745 5742 5741 5739 5738 5736 5735 5733 5732
5727 5725 5738 5743 5742 5740 5736 5732 5734 5745 5757 5756 5751 5754 5766 5772 5775 5779 5778 5776 5778 5778 5779 5781 5781 5780 5778 5776 5773 5770 5766 5762 5759 5755 5750 5746 5742 5739 5738 5736 5734 5732 5731 5730
5721 5732 5742 5738 5734 5731 5730 5729 5733 5736 5745 5749 5746 5742 5755 5766 5772 5776 5777 5778 5777 5778 5776 5777 5777 5777 5776 5773 5771 5770 5765 5762 5758 5754 5749 5744 5740 5736 5735 5733 5731 5730 5729 5728
5721 5732 5735 5731 5729 5729 5721 5737 5737 5736 5727 5719 5732 5714 5739 5752 5758 5766 5770 5772 5773 5776 5776 5775 5775 5774 5774 5773 5770 5767 5764 5760 5757 5753 5748 5742 5737 5733 5732 5730 5729 5728 5726 5725
5718 5728 5728 5725 5731 5733 5731 5740 5735 5731 5721 5712 5718 5711 5723 5742 5748 5758 5766 5770 5772 5774 5774 5774 5774 5774 5773 5771 5768 5765 5761 5758 5755 5751 5747 5741 5737 5734 5731 5729 5726 5725 5724 5723
5720 5730 5731 5732 5739 5739 5737 5728 5719 5707 5701 5693 5709 5705 5712 5731 5745 5756 5763 5767 5769 5771 5772 5772 5772 5770 5769 5767 5765 5762 5758 5755 5752 5749 5745 5740 5736 5732 5728 5726 5723 5722 5721 5720
5707 5718 5728 5735 5727 5728 5723 5702 5683 5683 5674 5682 5706 5704 5711 5740 5750 5755 5759 5762 5766 5768 5768 5767 5767 5766 5764 5762 5761 5758 5755 5751 5748 5745 5741 5738 5734 5731 5727 5724 5722 5720 5718 5717
5687 5691 5716 5725 5722 5714 5711 5702 5678 5671 5669 5680 5698 5697 5720 5745 5752 5756 5759 5761 5763 5763 5764 5764 5764 5763 5761 5759 5757 5754 5751 5747 5744 5742 5738 5735 5732 5729 5725 5723 5720 5718 5716 5715
5680 5687 5715 5724 5728 5720 5703 5696 5700 5680 5678 5676 5684 5701 5722 5743 5746 5750 5752 5754 5755 5758 5760 5760 5759 5757 5756 5754 5752 5749 5746 5743 5741 5738 5735 5732 5729 5726 5723 5721 5719 5717 5715 5714
5690 5685 5704 5715 5719 5715 5710 5698 5682 5672 5663 5663 5680 5692 5703 5726 5734 5740 5743 5746 5749 5752 5754 5754 5753 5752 5751 5750 5748 5745 5741 5738 5737 5734 5730 5728 5725 5723 5720 5718 5716 5715 5713 5712
5690 5680 5689 5699 5698 5696 5695 5690 5680 5668 5668 5661 5663 5682 5719 5725 5731 5734 5739 5742 5744 5746 5748 5748 5747 5746 5745 5744 5742 5739 5736 5733 5731 5729 5727 5724 5721 5719 5717 5715 5713 5712 5710 5709
5681 5671 5669 5682 5699 5705 5700 5690 5678 5670 5666 5662 5663 5682 5726 5727 5731 5733 5735 5738 5739 5740 5741 5741 5741 5740 5739 5736 5735 5731 5730 5728 5727 5725 5722 5719 5716 5714 5712 5710 5709 5708 5707 5705
5675 5662 5655 5664 5676 5688 5688 5686 5681 5672 5662 5655 5660 5684 5719 5722 5724 5727 5729 5732 5733 5734 5734 5734 5733 5732 5731 5729 5728 5726 5724 5722 5720 5718 5716 5714 5712 5710 5708 5706 5705 5704 5703 5702
5676 5657 5654 5654 5663 5675 5679 5681 5678 5671 5658 5658 5668 5686 5705 5711 5715 5720 5723 5726 5727 5727 5728 5728 5726 5725 5724 5723 5722 5721 5719 5717 5714 5712 5711 5708 5707 5705 5704 5702 5701 5700 5698 5697
5666 5653 5657 5663 5673 5677 5679 5679 5678 5674 5671 5668 5678 5683 5697 5705 5711 5716 5718 5721 5721 5720 5721 5721 5720 5719 5718 5717 5716 5713 5712 5711 5710 5707 5705 5704 5703 5701 5700 5698 5696 5696 5694 5694
5652 5649 5653 5657 5667 5671 5672 5675 5675 5676 5676 5675 5680 5684 5699 5704 5708 5710 5713 5716 5716 5716 5716 5716 5716 5715 5714 5713 5711 5709 5708 5706 5705 5703 5701 5700 5698 5697 5696 5694 5692 5691 5690 5689
5640 5642 5639 5639 5653 5660 5655 5668 5671 5672 5674 5675 5673 5683 5693 5695 5700 5704 5708 5711 5711 5712 5712 5712 5712 5711 5710 5709 5707 5704 5703 5703 5701 5698 5697 5695 5694 5692 5691 5690 5688 5686 5685 5684
5633 5630 5624 5628 5639 5634 5653 5670 5673 5670 5671 5674 5678 5682 5686 5690 5696 5701 5704 5705 5706 5707 5707 5708 5707 5706 5705 5704 5702 5700 5699 5697 5696 5693 5692 5691 5689 5687 5685 5684 5683 5682 5680 5679
5630 5626 5619 5617 5622 5632 5649 5660 5662 5661 5664 5671 5672 5677 5680 5685 5690 5692 5698 5701 5702 5703 5704 5704 5704 5703 5701 5699 5697 5695 5693 5692 5691 5689 5687 5686 5685 5683 5681 5680 5678 5677 5676 5675
5622 5622 5615 5612 5618 5621 5641 5657 5663 5660 5653 5666 5668 5669 5672 5677 5673 5681 5692 5694 5696 5696 5698 5698 5698 5697 5695 5693 5692 5689 5688 5686 5685 5685 5684 5683 5681 5679 5678 5676 5675 5673 5672 5671
5610 5610 5608 5608 5612 5622 5640 5651 5656 5642 5646 5661 5663 5664 5666 5668 5672 5679 5684 5687 5689 5691 5692 5693 5693 5691 5690 5689 5687 5684 5683 5682 5682 5681 5680 5679 5678 5676 5674 5672 5671 5669 5668 5666
5602 5602 5603 5602 5606 5615 5638 5643 5641 5643 5651 5655 5658 5660 5661 5665 5669 5673 5677 5679 5681 5683 5685 5687 5686 5684 5684 5684 5682 5679 5678 5678 5678 5677 5675 5674 5674 5673 5671 5668 5666 5664 5663 5662
5598 5601 5602 5606 5612 5623 5631 5635 5639 5642 5645 5649 5652 5655 5657 5659 5663 5666 5669 5672 5674 5677 5678 5679 5679 5678 5678 5678 5678 5676 5675 5674 5673 5672 5670 5669 5668 5667 5665 5663 5661 5660 5658 5657
5596 5599 5600 5604 5613 5621 5625 5630 5634 5637 5640 5645 5648 5651 5653 5654 5657 5659 5662 5664 5667 5669 5671 5671 5670 5670 5671 5672 5673 5672 5670 5669 5668 5666 5665 5664 5662 5661 5660 5658 5657 5655 5654 5652
5591 5595 5597 5601 5608 5616 5622 5625 5629 5632 5637 5640 5643 5646 5648 5649 5651 5653 5654 5657 5659 5662 5663 5664 5664 5663 5663 5665 5666 5665 5664 5664 5662 5660 5659 5658 5657 5656 5654 5652 5651 5651 5650 5649
5585 5589 5592 5599 5607 5609 5615 5621 5625 5627 5631 5635 5637 5640 5642 5644 5646 5647 5648 5650 5652 5654 5656 5657 5656 5657 5657 5659 5660 5660 5659 5658 5656 5654 5652 5651 5650 5649 5648 5647 5645 5644 5643 5642